Weather History for St. Joseph, MO

Change the Weather History Date:

Friday, February 15, 2013

  Actual Average Record
Temperature  
Mean Temperature 26 °F 32 °F  
Max Temperature 36 °F 42 °F 73 °F (1921)
Min Temperature 16 °F 22 °F -9 °F (1936)
Degree Days  
Heating Degree Days 39 33  
Month to date heating degree days 452 521  
Since 1 July heating degree days 3613 3904  
Cooling Degree Days 0 0  
Month to date cooling degree days 0 0  
Year to date cooling degree days 0 0  
Moisture  
Dew Point 15 °F    
Average Humidity 60    
Maximum Humidity 81    
Minimum Humidity 38    
Precipitation  
Precipitation T in 0.02 in 0.35 in (1942)
Month to date precipitation 0.05 0.45  
Year to date precipitation 0.69 1.01  
Sea Level Pressure  
Sea Level Pressure 30.35 in    
Wind  
Wind Speed 11 mph (NNW)    
Max Wind Speed 24 mph    
Max Gust Speed 31 mph    
Visibility 10 miles    
Events      
T = Trace of Precipitation, MM = Missing Value Source: NWS Daily Summary

Daily Weather History Graph

Daily Weather History Graph

Search for Another Location

Airport:

Trip Planner

Search our weather history database for the weather conditions in past years. The results will help you decide how hot, cold, wet, or windy it might be!

Date:

Astronomy

Feb. 15, 2013 Rise Set
Actual Time 7:11 AM CST 5:56 PM CST
Civil Twilight 6:44 AM CST 6:23 PM CST
Nautical Twilight 6:12 AM CST 6:55 PM CST
Astronomical Twilight 5:41 AM CST 7:26 PM CST
Moon 9:49 AM CST (2/15) 11:57 PM CST (2/15)
Length of Visible Light 11h 39m
Length of Day
10h 44m
Waxing Crescent, 30% of the Moon is Illuminated
Feb 15
Waxing Crescent
Feb 17
First Quarter
Feb 25
Full
Mar 4
Last Quarter
Mar 11
New

Hourly Weather History & Observations

Time (CST) Temp. Windchill Dew Point Humidity Pressure Visibility Wind Dir Wind Speed Gust Speed Precip Events Conditions
12:14 AM 32.0 °F 19.8 °F 24.8 °F 75% 30.21 in 9.0 mi North 20.7 mph 31.1 mph 0.00 in   Overcast
12:22 AM 32.0 °F 22.1 °F 26.6 °F 80% 30.22 in 8.0 mi North 13.8 mph - 0.00 in   Overcast
12:53 AM 30.9 °F 18.4 °F 21.0 °F 67% 30.25 in 10.0 mi North 20.7 mph 26.5 mph 0.00 in   Overcast
1:53 AM 28.9 °F 15.8 °F 17.1 °F 61% 30.28 in 10.0 mi NNW 20.7 mph 25.3 mph 0.00 in   Overcast
2:53 AM 26.1 °F 13.6 °F 14.0 °F 60% 30.31 in 10.0 mi North 16.1 mph - N/A   Overcast
3:53 AM 23.0 °F 10.6 °F 12.0 °F 63% 30.33 in 10.0 mi NNW 13.8 mph - N/A   Clear
4:53 AM 21.0 °F 10.6 °F 10.9 °F 65% 30.36 in 10.0 mi NNW 9.2 mph - N/A   Clear
5:53 AM 17.1 °F 7.6 °F 12.0 °F 81% 30.38 in 10.0 mi NW 6.9 mph - N/A   Clear
6:53 AM 17.1 °F 5.8 °F 10.9 °F 77% 30.40 in 10.0 mi NW 9.2 mph - N/A   Clear
7:53 AM 19.0 °F 7.5 °F 12.0 °F 74% 30.41 in 10.0 mi NW 10.4 mph - N/A   Clear
8:53 AM 21.9 °F 11.0 °F 10.9 °F 63% 30.43 in 10.0 mi NNW 10.4 mph - N/A   Clear
9:53 AM 25.0 °F 15.5 °F 10.0 °F 53% 30.43 in 10.0 mi NNW 9.2 mph - N/A   Clear
10:53 AM 28.9 °F 17.7 °F 12.0 °F 49% 30.41 in 10.0 mi NNW 15.0 mph - N/A   Clear
11:53 AM 30.9 °F 19.8 °F 14.0 °F 50% 30.40 in 10.0 mi NW 16.1 mph 25.3 mph N/A   Mostly Cloudy
12:53 PM 33.1 °F 23.0 °F 14.0 °F 46% 30.37 in 10.0 mi NW 15.0 mph 21.9 mph N/A   Scattered Clouds
1:53 PM 34.0 °F 27.2 °F 12.9 °F 42% 30.35 in 10.0 mi NNW 8.1 mph - N/A   Partly Cloudy
2:53 PM 35.1 °F 25.2 °F 12.0 °F 39% 30.35 in 10.0 mi NNW 16.1 mph 21.9 mph N/A   Partly Cloudy
3:53 PM 36.0 °F 28.0 °F 12.9 °F 39% 30.34 in 10.0 mi North 11.5 mph - N/A   Mostly Cloudy
4:53 PM 34.0 °F 28.0 °F 12.9 °F 42% 30.34 in 10.0 mi NW 6.9 mph - N/A   Overcast
5:53 PM 28.0 °F 20.8 °F 12.9 °F 53% 30.34 in 10.0 mi NNE 6.9 mph - N/A   Partly Cloudy
6:53 PM 27.0 °F 21.6 °F 12.9 °F 56% 30.34 in 10.0 mi NNE 4.6 mph - N/A   Partly Cloudy
7:53 PM 28.9 °F 23.9 °F 16.0 °F 58% 30.35 in 10.0 mi NNE 4.6 mph - N/A   Overcast
8:53 PM 28.9 °F 21.9 °F 17.1 °F 61% 30.35 in 10.0 mi North 6.9 mph - N/A   Overcast
9:53 PM 26.1 °F 19.4 °F 19.0 °F 75% 30.36 in 10.0 mi WNW 5.8 mph - 0.00 in   Overcast
10:53 PM 25.0 °F 19.3 °F 19.0 °F 78% 30.36 in 10.0 mi North 4.6 mph - N/A   Overcast
11:53 PM 25.0 °F 18.1 °F 16.0 °F 69% 30.36 in 10.0 mi North 5.8 mph - N/A   Overcast